Вернуться в каталог

CZ-4 DEB

АктивенSSO
NORAD 27493·DEBRIS·🇨🇳 China

Запущен Oct 14, 1999 с Taiyuan Satellite Launch Center

Loading…

Ближайшие Пролёты (ближайшие 24 часа)

TLE

СвежийSource: Space-Track

Эпоха: Sep 12, 2026, 09:57 UTC

1 27493U 99057MN  26255.41496806  .00000503  00000-0  13754-3 0  9994
2 27493  98.5353 313.9136 0072449 274.1325 149.5311 14.50224362363786

Отслеживайте CZ-4 DEB в реальном времени с AllMySat

Download on the App Store